Weather History for Nausori, Fiji

Change the Weather History Date:

Friday, November 9, 2012

  Actual Average Record
Temperature  
Mean Temperature 71 °F -  
Max Temperature 75 °F - - ()
Min Temperature 67 °F - - ()
Cooling Degree Days 6    
Growing Degree Days 21 (Base 50)    
Moisture  
Dew Point 67 °F    
Average Humidity 89    
Maximum Humidity 100    
Minimum Humidity 66    
Precipitation  
Precipitation 0.28 in - - ()
Sea Level Pressure  
Sea Level Pressure 29.92 in    
Wind  
Wind Speed 1 mph ()    
Max Wind Speed 10 mph    
Max Gust Speed -    
Visibility 13.4 miles    
Events Rain    
T = Trace of Precipitation, MM = Missing Value Source: Averaged Metar Reports

Daily Weather History Graph

Daily Weather History Graph

Search for Another Location

Airport:

Trip Planner

Search our weather history database for the weather conditions in past years. The results will help you decide how hot, cold, wet, or windy it might be!

Date:

Astronomy

Nov. 09, 2012 Rise Set
Actual Time 6:23 AM FJST 7:16 PM FJST
Civil Twilight 6:00 AM FJST 7:39 PM FJST
Nautical Twilight 5:33 AM FJST 8:06 PM FJST
Astronomical Twilight 5:05 AM FJST 8:33 PM FJST
Moon 2:19 AM FJST (11/9) 2:31 PM FJST (11/9)
Length of Visible Light 13h 38m
Length of Day
12h 52m
Waning Crescent, 30% of the Moon is Illuminated
Nov 9
Waning Crescent
Nov 14
New
Nov 21
First Quarter
Nov 29
Full
Dec 7
Last Quarter

Hourly Weather History & Observations

Time (FJST) Temp. Dew Point Humidity Pressure Visibility Wind Dir Wind Speed Gust Speed Precip Events Conditions
12:00 AM 69.8 °F 66.2 °F 88% 29.89 in 18.6 mi Calm Calm - N/A Rain Light Rain Showers
1:00 AM 69 °F 67 °F 92% 29.88 in 12 mi Calm Calm - - Rain Light Rain Showers
1:00 AM 69.8 °F 68.0 °F 94% 29.86 in 24.9 mi Calm Calm - N/A   Scattered Clouds
2:00 AM 68.0 °F 66.2 °F 94% 29.86 in 24.9 mi Calm Calm - N/A Rain Light Rain Showers
3:00 AM 69.8 °F 66.2 °F 88% 29.86 in 24.9 mi Calm Calm - N/A Rain Light Rain Showers
4:00 AM 68 °F 68 °F 99% 29.86 in 12 mi Calm Calm - - Rain Light Rain Showers
4:00 AM 68.0 °F 68.0 °F 100% 29.86 in 18.6 mi Calm Calm - N/A Rain Light Rain Showers
5:00 AM 68.0 °F 66.2 °F 94% 29.86 in 24.9 mi Calm Calm - N/A Rain Light Rain Showers
6:00 AM 68.0 °F 66.2 °F 94% 29.89 in 24.9 mi Calm Calm - N/A Rain Light Rain
7:00 AM 67 °F 67 °F 98% 29.91 in 12 mi Calm Calm - - Rain Light Rain
7:00 AM 68.0 °F 66.2 °F 94% 29.89 in 24.9 mi Calm Calm - N/A Rain Light Rain
8:00 AM 68.0 °F 66.2 °F 94% 29.92 in 24.9 mi Calm Calm - N/A Rain Light Rain
9:00 AM 68.0 °F 66.2 °F 94% 29.95 in 18.6 mi Calm Calm - N/A Rain Light Rain Showers
10:00 AM 68 °F 67 °F 94% 29.96 in 12 mi Calm Calm - - Rain Light Rain Showers
10:00 AM 68.0 °F 66.2 °F 94% 29.95 in 18.6 mi Calm Calm - N/A Rain Light Rain Showers
11:00 AM 71.6 °F 68.0 °F 88% 29.95 in 18.6 mi Calm Calm - N/A Rain Light Rain Showers
12:00 PM 68.0 °F 66.2 °F 94% 29.95 in 6.2 mi SE 8.1 mph - N/A Rain Light Rain Showers
1:00 PM 70 °F 66 °F 82% 29.95 in 12 mi Calm Calm - - Rain Light Rain Showers
1:00 PM 69.8 °F 66.2 °F 88% 29.95 in 6.2 mi Calm Calm - N/A Rain Light Rain Showers
3:00 PM 73.4 °F 71.6 °F 94% 29.92 in 12.4 mi Calm Calm - N/A   Mostly Cloudy
4:00 PM 75 °F 70 °F 79% 29.92 in 12 mi East 5.8 mph - -   Partly Cloudy
4:00 PM 75.2 °F 69.8 °F 83% 29.92 in 24.9 mi East 9.2 mph - N/A   Mostly Cloudy
5:00 PM 75.2 °F 69.8 °F 83% 29.89 in 24.9 mi ESE 10.4 mph - N/A   Mostly Cloudy
6:00 PM 71.6 °F 62.6 °F 73% 29.92 in 24.9 mi ESE 4.6 mph - N/A   Mostly Cloudy
7:00 PM 72 °F 63 °F 66% 29.95 in 12 mi East 3.5 mph - -   Partly Cloudy
7:00 PM 71.6 °F 62.6 °F 73% 29.95 in 24.9 mi East 3.5 mph - N/A   Mostly Cloudy
8:00 PM 71.6 °F 62.6 °F 73% 29.98 in 24.9 mi East 5.8 mph - N/A   Mostly Cloudy
9:00 PM 68.0 °F 66.2 °F 94% 29.98 in 24.9 mi South 4.6 mph - N/A   Mostly Cloudy
10:00 PM 68 °F 65 °F 89% 29.99 in 12 mi Calm Calm - -   Partly Cloudy
10:00 PM 68.0 °F 66.2 °F 94% 29.98 in 24.9 mi Calm Calm - N/A   Mostly Cloudy
11:00 PM 68.0 °F 66.2 °F 94% 29.98 in 24.9 mi ENE 6.9 mph - N/A   Overcast